Year,Month,Day,Hour,Minute,Value (Times are PST for temperature in C)
2014,01,24,00,00,2.10
2014,01,24,00,01,2.10
2014,01,24,00,02,2.10
2014,01,24,00,03,2.10
2014,01,24,00,04,2.10
2014,01,24,00,05,2.20
2014,01,24,00,06,2.20
2014,01,24,00,07,2.20
2014,01,24,00,08,2.20
2014,01,24,00,09,2.10
2014,01,24,00,10,2.10
2014,01,24,00,11,2.10
2014,01,24,00,12,2.10
2014,01,24,00,13,2.10
2014,01,24,00,14,2.10
2014,01,24,00,15,2.10
2014,01,24,00,16,2.10
2014,01,24,00,17,2.10
2014,01,24,00,18,2.10
2014,01,24,00,19,2.10
2014,01,24,00,20,2.10
2014,01,24,00,21,2.10
2014,01,24,00,22,2.10
2014,01,24,00,23,2.10
2014,01,24,00,24,2.10
2014,01,24,00,25,2.10
2014,01,24,00,26,2.20
2014,01,24,00,27,2.20
2014,01,24,00,28,2.20
2014,01,24,00,29,2.20
2014,01,24,00,30,2.20
2014,01,24,00,31,2.20
2014,01,24,00,32,2.20
2014,01,24,00,33,2.20
2014,01,24,00,34,2.20
2014,01,24,00,35,2.20
2014,01,24,00,36,2.20
2014,01,24,00,37,2.20
2014,01,24,00,38,2.20
2014,01,24,00,39,2.10
2014,01,24,00,40,2.10
2014,01,24,00,41,2.10
2014,01,24,00,42,2.10
2014,01,24,00,43,2.10
2014,01,24,00,44,2.10
2014,01,24,00,45,2.20
2014,01,24,00,46,2.30
2014,01,24,00,47,2.40
2014,01,24,00,48,2.50
2014,01,24,00,49,2.50
2014,01,24,00,50,2.60
2014,01,24,00,51,2.70
2014,01,24,00,52,2.70
2014,01,24,00,53,2.70
2014,01,24,00,54,2.80
2014,01,24,00,55,2.80
2014,01,24,00,56,2.90
2014,01,24,00,57,2.90
2014,01,24,00,58,3.00
2014,01,24,00,59,3.10
2014,01,24,01,00,3.10
2014,01,24,01,01,3.20
2014,01,24,01,02,3.30
2014,01,24,01,03,3.40
2014,01,24,01,04,3.50
2014,01,24,01,05,3.60
2014,01,24,01,06,3.70
2014,01,24,01,07,3.80
2014,01,24,01,08,3.80
2014,01,24,01,09,3.90
2014,01,24,01,10,4.00
2014,01,24,01,11,4.00
2014,01,24,01,12,4.10
2014,01,24,01,13,4.00
2014,01,24,01,14,4.00
2014,01,24,01,15,4.00
2014,01,24,01,16,4.00
2014,01,24,01,17,4.00
2014,01,24,01,18,3.90
2014,01,24,01,19,3.90
2014,01,24,01,20,3.90
2014,01,24,01,21,3.90
2014,01,24,01,22,3.90
2014,01,24,01,23,3.90
2014,01,24,01,24,3.80
2014,01,24,01,25,3.80
2014,01,24,01,26,3.80
2014,01,24,01,27,3.80
2014,01,24,01,28,3.80
2014,01,24,01,29,3.80
2014,01,24,01,30,3.70
2014,01,24,01,31,3.70
2014,01,24,01,32,3.60
2014,01,24,01,33,3.50
2014,01,24,01,34,3.50
2014,01,24,01,35,3.50
2014,01,24,01,36,3.40
2014,01,24,01,37,3.30
2014,01,24,01,38,3.30
2014,01,24,01,39,3.30
2014,01,24,01,40,3.20
2014,01,24,01,41,3.20
2014,01,24,01,42,3.10
2014,01,24,01,43,3.10
2014,01,24,01,44,3.10
2014,01,24,01,45,2.90
2014,01,24,01,46,2.90
2014,01,24,01,47,2.90
2014,01,24,01,48,2.90
2014,01,24,01,49,2.90
2014,01,24,01,50,2.80
2014,01,24,01,51,2.80
2014,01,24,01,52,2.80
2014,01,24,01,53,2.80
2014,01,24,01,54,2.70
2014,01,24,01,55,2.70
2014,01,24,01,56,2.70
2014,01,24,01,57,2.70
2014,01,24,01,58,2.60
2014,01,24,01,59,2.60
2014,01,24,02,00,2.60
2014,01,24,02,01,2.60
2014,01,24,02,02,2.60
2014,01,24,02,03,2.60
2014,01,24,02,04,2.60
2014,01,24,02,05,2.60
2014,01,24,02,06,2.60
2014,01,24,02,07,2.60
2014,01,24,02,08,2.60
2014,01,24,02,09,2.50
2014,01,24,02,10,2.50
2014,01,24,02,11,2.50
2014,01,24,02,12,2.50
2014,01,24,02,13,2.40
2014,01,24,02,14,2.40
2014,01,24,02,15,2.40
2014,01,24,02,16,2.40
2014,01,24,02,17,2.40
2014,01,24,02,18,2.40
2014,01,24,02,19,2.30
2014,01,24,02,20,2.30
2014,01,24,02,21,2.30
2014,01,24,02,22,2.20
2014,01,24,02,23,2.20
2014,01,24,02,24,2.20
2014,01,24,02,25,2.20
2014,01,24,02,26,2.20
2014,01,24,02,27,2.20
2014,01,24,02,28,2.20
2014,01,24,02,29,2.20
2014,01,24,02,30,2.20
2014,01,24,02,31,2.20
2014,01,24,02,32,2.20
2014,01,24,02,33,2.20
2014,01,24,02,34,2.20
2014,01,24,02,35,2.20
2014,01,24,02,36,2.20
2014,01,24,02,37,2.20
2014,01,24,02,38,2.20
2014,01,24,02,39,2.20
2014,01,24,02,40,2.20
2014,01,24,02,41,2.20
2014,01,24,02,42,2.20
2014,01,24,02,43,2.20
2014,01,24,02,44,2.20
2014,01,24,02,45,2.20
2014,01,24,02,46,2.20
2014,01,24,02,47,2.20
2014,01,24,02,48,2.20
2014,01,24,02,49,2.20
2014,01,24,02,50,2.20
2014,01,24,02,51,2.20
2014,01,24,02,52,2.20
2014,01,24,02,53,2.20
2014,01,24,02,54,2.20
2014,01,24,02,55,2.20
2014,01,24,02,56,2.20
2014,01,24,02,57,2.20
2014,01,24,02,58,2.20
2014,01,24,02,59,2.20
2014,01,24,03,00,2.20
2014,01,24,03,01,2.20
2014,01,24,03,02,2.20
2014,01,24,03,03,2.10
2014,01,24,03,04,2.10
2014,01,24,03,05,2.10
2014,01,24,03,06,2.10
2014,01,24,03,07,2.10
2014,01,24,03,08,2.10
2014,01,24,03,09,2.10
2014,01,24,03,10,2.10
2014,01,24,03,11,2.10
2014,01,24,03,12,2.10
2014,01,24,03,13,2.10
2014,01,24,03,14,2.10
2014,01,24,03,15,2.00
2014,01,24,03,16,2.00
2014,01,24,03,17,2.00
2014,01,24,03,18,2.00
2014,01,24,03,19,2.00
2014,01,24,03,20,2.00
2014,01,24,03,21,2.00
2014,01,24,03,22,2.00
2014,01,24,03,23,2.00
2014,01,24,03,24,2.00
2014,01,24,03,25,2.10
2014,01,24,03,26,2.10
2014,01,24,03,27,2.10
2014,01,24,03,28,2.10
2014,01,24,03,29,2.10
2014,01,24,03,30,2.10
2014,01,24,03,31,2.10
2014,01,24,03,32,2.10
2014,01,24,03,33,2.10
2014,01,24,03,34,2.10
2014,01,24,03,35,2.10
2014,01,24,03,36,2.10
2014,01,24,03,37,2.00
2014,01,24,03,38,2.00
2014,01,24,03,39,2.00
2014,01,24,03,40,2.00
2014,01,24,03,41,2.00
2014,01,24,03,42,2.00
2014,01,24,03,43,2.00
2014,01,24,03,44,2.00
2014,01,24,03,45,2.00
2014,01,24,03,46,2.00
2014,01,24,03,47,2.00
2014,01,24,03,48,1.90
2014,01,24,03,49,1.90
2014,01,24,03,50,1.90
2014,01,24,03,51,1.90
2014,01,24,03,52,1.90
2014,01,24,03,53,1.90
2014,01,24,03,54,1.90
2014,01,24,03,55,1.90
2014,01,24,03,56,1.80
2014,01,24,03,57,1.80
2014,01,24,03,58,1.80
2014,01,24,03,59,1.80
2014,01,24,04,00,1.80
2014,01,24,04,01,1.80
2014,01,24,04,02,1.80
2014,01,24,04,03,1.80
2014,01,24,04,04,1.80
2014,01,24,04,05,1.80
2014,01,24,04,06,1.80
2014,01,24,04,07,1.80
2014,01,24,04,08,1.80
2014,01,24,04,09,1.80
2014,01,24,04,10,1.80
2014,01,24,04,11,1.80
2014,01,24,04,12,1.80
2014,01,24,04,13,1.80
2014,01,24,04,14,1.80
2014,01,24,04,15,1.80
2014,01,24,04,16,1.80
2014,01,24,04,17,1.80
2014,01,24,04,18,1.80
2014,01,24,04,19,1.80
2014,01,24,04,20,1.80
2014,01,24,04,21,1.80
2014,01,24,04,22,1.80
2014,01,24,04,23,1.80
2014,01,24,04,24,1.80
2014,01,24,04,25,1.80
2014,01,24,04,26,1.80
2014,01,24,04,27,1.80
2014,01,24,04,28,1.80
2014,01,24,04,29,1.80
2014,01,24,04,30,1.80
2014,01,24,04,31,1.80
2014,01,24,04,32,1.80
2014,01,24,04,33,1.80
2014,01,24,04,34,1.80
2014,01,24,04,35,1.80
2014,01,24,04,36,1.80
2014,01,24,04,37,1.80
2014,01,24,04,38,1.80
2014,01,24,04,39,1.80
2014,01,24,04,40,1.80
2014,01,24,04,41,1.80
2014,01,24,04,42,1.80
2014,01,24,04,43,1.80
2014,01,24,04,44,1.80
2014,01,24,04,45,1.80
2014,01,24,04,46,1.80
2014,01,24,04,47,1.80
2014,01,24,04,48,1.80
2014,01,24,04,49,1.80
2014,01,24,04,50,1.80
2014,01,24,04,51,1.80
2014,01,24,04,52,1.80
2014,01,24,04,53,1.80
2014,01,24,04,54,1.80
2014,01,24,04,55,1.80
2014,01,24,04,56,1.80
2014,01,24,04,57,1.80
2014,01,24,04,58,1.80
2014,01,24,04,59,1.80
2014,01,24,05,00,1.80
2014,01,24,05,01,1.80
2014,01,24,05,02,1.80
2014,01,24,05,03,1.80
2014,01,24,05,04,1.80
2014,01,24,05,05,1.80
2014,01,24,05,06,1.80
2014,01,24,05,07,1.80
2014,01,24,05,08,1.80
2014,01,24,05,09,1.80
2014,01,24,05,10,1.80
2014,01,24,05,11,1.80
2014,01,24,05,12,1.80
2014,01,24,05,13,1.80
2014,01,24,05,14,1.80
2014,01,24,05,15,1.80
2014,01,24,05,16,1.80
2014,01,24,05,17,1.80
2014,01,24,05,18,1.80
2014,01,24,05,19,1.80
2014,01,24,05,20,1.80
2014,01,24,05,21,1.80
2014,01,24,05,22,1.80
2014,01,24,05,23,1.80
2014,01,24,05,24,1.80
2014,01,24,05,25,1.70
2014,01,24,05,26,1.70
2014,01,24,05,27,1.70
2014,01,24,05,28,1.70
2014,01,24,05,29,1.70
2014,01,24,05,30,1.70
2014,01,24,05,31,1.70
2014,01,24,05,32,1.70
2014,01,24,05,33,1.70
2014,01,24,05,34,1.70
2014,01,24,05,35,1.70
2014,01,24,05,36,1.70
2014,01,24,05,37,1.70
2014,01,24,05,38,1.70
2014,01,24,05,39,1.70
2014,01,24,05,40,1.70
2014,01,24,05,41,1.70
2014,01,24,05,42,1.70
2014,01,24,05,43,1.70
2014,01,24,05,44,1.70
2014,01,24,05,45,1.70
2014,01,24,05,46,1.70
2014,01,24,05,47,1.70
2014,01,24,05,48,1.70
2014,01,24,05,49,1.70
2014,01,24,05,50,1.70
2014,01,24,05,51,1.70
2014,01,24,05,52,1.70
2014,01,24,05,53,1.70
2014,01,24,05,54,1.70
2014,01,24,05,55,1.70
2014,01,24,05,56,1.70
2014,01,24,05,57,1.70
2014,01,24,05,58,1.70
2014,01,24,05,59,1.70
2014,01,24,06,00,1.70
2014,01,24,06,01,1.70
2014,01,24,06,02,1.70
2014,01,24,06,03,1.70
2014,01,24,06,04,1.70
2014,01,24,06,05,1.70
2014,01,24,06,06,1.70
2014,01,24,06,07,1.70
2014,01,24,06,08,1.70
2014,01,24,06,09,1.70
2014,01,24,06,10,1.70
2014,01,24,06,11,1.70
2014,01,24,06,12,1.60
2014,01,24,06,13,1.60
2014,01,24,06,14,1.60
2014,01,24,06,15,1.60
2014,01,24,06,16,1.70
2014,01,24,06,17,1.70
2014,01,24,06,18,1.70
2014,01,24,06,19,1.70
2014,01,24,06,20,1.70
2014,01,24,06,21,1.70
2014,01,24,06,22,1.70
2014,01,24,06,23,1.80
2014,01,24,06,24,1.80
2014,01,24,06,25,1.80
2014,01,24,06,26,1.80
2014,01,24,06,27,1.80
2014,01,24,06,28,1.80
2014,01,24,06,29,1.80
2014,01,24,06,30,1.80
2014,01,24,06,31,1.80
2014,01,24,06,32,1.80
2014,01,24,06,33,1.80
2014,01,24,06,34,1.80
2014,01,24,06,35,1.80
2014,01,24,06,36,1.80
2014,01,24,06,37,1.80
2014,01,24,06,38,1.80
2014,01,24,06,39,1.80
2014,01,24,06,40,1.80
2014,01,24,06,41,1.80
2014,01,24,06,42,1.80
2014,01,24,06,43,1.80
2014,01,24,06,44,1.80
2014,01,24,06,45,1.80
2014,01,24,06,46,1.70
2014,01,24,06,47,1.70
2014,01,24,06,48,1.70
2014,01,24,06,49,1.70
2014,01,24,06,50,1.70
2014,01,24,06,51,1.70
2014,01,24,06,52,1.60
2014,01,24,06,53,1.60
2014,01,24,06,54,1.60
2014,01,24,06,55,1.60
2014,01,24,06,56,1.60
2014,01,24,06,57,1.60
2014,01,24,06,58,1.60
2014,01,24,06,59,1.50
2014,01,24,07,00,1.50
2014,01,24,07,01,1.50
2014,01,24,07,02,1.50
2014,01,24,07,03,1.50
2014,01,24,07,04,1.50
2014,01,24,07,05,1.50
2014,01,24,07,06,1.50
2014,01,24,07,07,1.50
2014,01,24,07,08,1.50
2014,01,24,07,09,1.50
2014,01,24,07,10,1.50
2014,01,24,07,11,1.50
2014,01,24,07,12,1.40
2014,01,24,07,13,1.40
2014,01,24,07,14,1.40
2014,01,24,07,15,1.40
2014,01,24,07,16,1.40
2014,01,24,07,17,1.40
2014,01,24,07,18,1.40
2014,01,24,07,19,1.40
2014,01,24,07,20,1.40
2014,01,24,07,21,1.40
2014,01,24,07,22,1.40
2014,01,24,07,23,1.40
2014,01,24,07,24,1.40
2014,01,24,07,25,1.40
2014,01,24,07,26,1.40
2014,01,24,07,27,1.40
2014,01,24,07,28,1.40
2014,01,24,07,29,1.40
2014,01,24,07,30,1.40
2014,01,24,07,31,1.40
2014,01,24,07,32,1.30
2014,01,24,07,33,1.30
2014,01,24,07,34,1.30
2014,01,24,07,35,1.30
2014,01,24,07,36,1.30
2014,01,24,07,37,1.30
2014,01,24,07,38,1.30
2014,01,24,07,39,1.30
2014,01,24,07,40,1.30
2014,01,24,07,41,1.30
2014,01,24,07,42,1.30
2014,01,24,07,43,1.30
2014,01,24,07,44,1.30
2014,01,24,07,45,1.30
2014,01,24,07,46,1.30
2014,01,24,07,47,1.30
2014,01,24,07,48,1.30
2014,01,24,07,49,1.30
2014,01,24,07,50,1.30
2014,01,24,07,51,1.30
2014,01,24,07,52,1.30
2014,01,24,07,53,1.30
2014,01,24,07,54,1.30
2014,01,24,07,55,1.30
2014,01,24,07,56,1.30
2014,01,24,07,57,1.30
2014,01,24,07,58,1.30
2014,01,24,07,59,1.30
2014,01,24,08,00,1.30
2014,01,24,08,01,1.30
2014,01,24,08,02,1.30
2014,01,24,08,03,1.30
2014,01,24,08,04,1.30
2014,01,24,08,05,1.30
2014,01,24,08,06,1.30
2014,01,24,08,07,1.30
2014,01,24,08,08,1.30
2014,01,24,08,09,1.30
2014,01,24,08,10,1.20
2014,01,24,08,11,1.20
2014,01,24,08,12,1.20
2014,01,24,08,13,1.20
2014,01,24,08,14,1.20
2014,01,24,08,15,1.20
2014,01,24,08,16,1.20
2014,01,24,08,17,1.20
2014,01,24,08,18,1.20
2014,01,24,08,19,1.20
2014,01,24,08,20,1.20
2014,01,24,08,21,1.20
2014,01,24,08,22,1.20
2014,01,24,08,23,1.20
2014,01,24,08,24,1.20
2014,01,24,08,25,1.20
2014,01,24,08,26,1.20
2014,01,24,08,27,1.20
2014,01,24,08,28,1.20
2014,01,24,08,29,1.20
2014,01,24,08,30,1.20
2014,01,24,08,31,1.20
2014,01,24,08,32,1.20
2014,01,24,10,47,6.00
2014,01,24,10,48,6.00
2014,01,24,10,49,6.10
2014,01,24,10,50,6.20
2014,01,24,10,51,6.20
2014,01,24,10,52,6.30
2014,01,24,10,53,6.40
2014,01,24,10,54,6.50
2014,01,24,10,55,6.70
2014,01,24,10,56,6.70
2014,01,24,10,57,6.80
2014,01,24,10,58,6.90
2014,01,24,10,59,7.00
2014,01,24,11,00,7.00
2014,01,24,11,01,7.10
2014,01,24,11,02,7.20
2014,01,24,11,03,7.30
2014,01,24,11,04,7.40
2014,01,24,11,05,7.50
2014,01,24,11,06,7.50
2014,01,24,11,07,7.60
2014,01,24,11,08,7.70
2014,01,24,11,09,7.80
2014,01,24,11,10,7.90
2014,01,24,11,11,8.10
2014,01,24,11,12,8.20
2014,01,24,11,13,8.30
2014,01,24,11,14,8.50
2014,01,24,11,15,8.60
2014,01,24,11,16,8.70
2014,01,24,11,17,8.80
2014,01,24,11,18,8.80
2014,01,24,11,19,8.90
2014,01,24,11,20,9.00
2014,01,24,11,21,9.00
2014,01,24,11,22,9.10
2014,01,24,11,23,9.10
2014,01,24,11,24,9.20
2014,01,24,11,25,9.30
2014,01,24,11,26,9.30
2014,01,24,11,27,9.40
2014,01,24,11,28,9.50
2014,01,24,11,29,9.60
2014,01,24,11,30,9.70
2014,01,24,11,31,9.70
2014,01,24,11,32,9.70
2014,01,24,11,33,9.80
2014,01,24,11,34,9.90
2014,01,24,11,35,10.00
2014,01,24,11,36,10.10
2014,01,24,11,37,10.10
2014,01,24,11,38,10.10
2014,01,24,11,39,10.20
2014,01,24,11,40,10.20
2014,01,24,11,41,10.30
2014,01,24,11,42,10.30
2014,01,24,11,43,10.40
2014,01,24,11,44,10.40
2014,01,24,11,45,10.40
2014,01,24,11,46,10.40
2014,01,24,11,47,10.40
2014,01,24,11,48,10.40
2014,01,24,11,49,10.40
2014,01,24,11,50,10.40
2014,01,24,11,51,10.40
2014,01,24,11,52,10.40
2014,01,24,11,53,10.50
2014,01,24,11,54,10.60
2014,01,24,11,55,10.60
2014,01,24,11,56,10.60
2014,01,24,11,57,10.60
2014,01,24,11,58,10.60
2014,01,24,11,59,10.60
2014,01,24,12,00,10.70
2014,01,24,12,01,10.80
2014,01,24,12,02,10.80
2014,01,24,12,03,10.90
2014,01,24,12,04,10.90
2014,01,24,12,05,10.90
2014,01,24,12,06,10.90
2014,01,24,12,07,11.00
2014,01,24,12,08,11.10
2014,01,24,12,09,11.10
2014,01,24,12,10,11.10
2014,01,24,12,11,11.10
2014,01,24,12,12,11.20
2014,01,24,12,13,11.20
2014,01,24,12,14,11.20
2014,01,24,12,15,11.20
2014,01,24,12,16,11.30
2014,01,24,12,17,11.30
2014,01,24,12,18,11.40
2014,01,24,12,19,11.40
2014,01,24,12,20,11.40
2014,01,24,12,21,11.40
2014,01,24,12,22,11.40
2014,01,24,12,23,11.40
2014,01,24,12,24,11.40
2014,01,24,12,25,11.40
2014,01,24,12,26,11.40
2014,01,24,12,27,11.40
2014,01,24,12,28,11.40
2014,01,24,12,29,11.60
2014,01,24,12,30,11.60
2014,01,24,12,31,11.60
2014,01,24,12,32,11.60
2014,01,24,12,33,11.60
2014,01,24,12,34,11.60
2014,01,24,12,35,11.60
2014,01,24,12,36,11.60
2014,01,24,12,37,11.60
2014,01,24,12,38,11.60
2014,01,24,12,39,11.60
2014,01,24,12,40,11.70
2014,01,24,12,41,11.70
2014,01,24,12,42,11.70
2014,01,24,12,43,11.70
2014,01,24,12,44,11.70
2014,01,24,12,45,11.80
2014,01,24,12,46,11.80
2014,01,24,12,47,11.80
2014,01,24,12,48,11.80
2014,01,24,12,49,11.80
2014,01,24,12,50,11.80
2014,01,24,12,51,11.80
2014,01,24,12,52,11.80
2014,01,24,12,53,11.80
2014,01,24,12,54,11.80
2014,01,24,12,55,11.90
2014,01,24,12,56,11.90
2014,01,24,12,57,11.90
2014,01,24,12,58,11.80
2014,01,24,12,59,11.80
2014,01,24,13,00,11.80
2014,01,24,13,01,11.80
2014,01,24,13,02,11.80
2014,01,24,13,03,11.80
2014,01,24,13,04,11.80
2014,01,24,13,05,11.80
2014,01,24,13,06,11.80
2014,01,24,13,07,11.80
2014,01,24,13,08,11.80
2014,01,24,13,09,11.80
2014,01,24,13,10,11.80
2014,01,24,13,11,11.90
2014,01,24,13,12,11.90
2014,01,24,13,13,11.90
2014,01,24,13,14,11.90
2014,01,24,13,15,11.90
2014,01,24,13,16,11.90
2014,01,24,13,17,11.90
2014,01,24,13,18,11.90
2014,01,24,13,19,11.90
2014,01,24,13,20,11.90
2014,01,24,13,21,11.90
2014,01,24,13,22,11.90
2014,01,24,13,23,12.00
2014,01,24,13,24,12.00
2014,01,24,13,25,12.10
2014,01,24,13,26,12.10
2014,01,24,13,27,12.20
2014,01,24,13,28,12.20
2014,01,24,13,29,12.20
2014,01,24,13,30,12.30
2014,01,24,13,31,12.30
2014,01,24,13,32,12.30
2014,01,24,13,33,12.30
2014,01,24,13,34,12.30
2014,01,24,13,35,12.30
2014,01,24,13,36,12.30
2014,01,24,13,37,12.30
2014,01,24,13,38,12.30
2014,01,24,13,39,12.20
2014,01,24,13,40,12.20
2014,01,24,13,41,12.20
2014,01,24,13,42,12.20
2014,01,24,13,43,12.20
2014,01,24,13,44,12.30
2014,01,24,13,45,12.30
2014,01,24,13,46,12.30
2014,01,24,13,47,12.30
2014,01,24,13,48,12.30
2014,01,24,13,49,12.30
2014,01,24,13,50,12.30
2014,01,24,13,51,12.30
2014,01,24,13,52,12.40
2014,01,24,13,53,12.40
2014,01,24,13,54,12.50
2014,01,24,13,55,12.50
2014,01,24,13,56,12.60
2014,01,24,13,57,12.60
2014,01,24,13,58,12.70
2014,01,24,13,59,12.70
2014,01,24,14,00,12.70
2014,01,24,14,01,12.80
2014,01,24,14,02,12.80
2014,01,24,14,03,12.80
2014,01,24,14,04,12.80
2014,01,24,14,05,12.80
2014,01,24,14,06,12.90
2014,01,24,14,07,12.90
2014,01,24,14,08,12.90
2014,01,24,14,09,12.90
2014,01,24,14,10,13.00
2014,01,24,14,11,13.00
2014,01,24,14,12,13.00
2014,01,24,14,13,13.00
2014,01,24,14,14,13.00
2014,01,24,14,15,13.00
2014,01,24,14,16,13.00
2014,01,24,14,17,13.00
2014,01,24,14,18,13.00
2014,01,24,14,19,13.00
2014,01,24,14,20,13.00
2014,01,24,14,21,13.00
2014,01,24,14,22,13.00
2014,01,24,14,23,13.00
2014,01,24,14,24,13.00
2014,01,24,14,25,13.00
2014,01,24,14,26,12.90
2014,01,24,14,27,12.90
2014,01,24,14,28,12.90
2014,01,24,14,29,12.90
2014,01,24,14,30,12.90
2014,01,24,14,31,12.90
2014,01,24,14,32,12.90
2014,01,24,14,33,12.90
2014,01,24,14,34,12.90
2014,01,24,14,35,12.90
2014,01,24,14,36,12.90
2014,01,24,14,37,12.90
2014,01,24,14,38,12.80
2014,01,24,14,39,12.80
2014,01,24,14,40,12.80
2014,01,24,14,41,12.90
2014,01,24,14,42,12.90
2014,01,24,14,43,12.90
2014,01,24,14,44,12.90
2014,01,24,14,45,12.90
2014,01,24,14,46,13.00
2014,01,24,14,47,13.00
2014,01,24,14,48,13.00
2014,01,24,14,49,13.00
2014,01,24,14,50,13.00
2014,01,24,14,51,13.00
2014,01,24,14,52,13.00
2014,01,24,14,53,13.00
2014,01,24,14,54,12.90
2014,01,24,14,55,12.90
2014,01,24,14,56,12.90
2014,01,24,14,57,12.90
2014,01,24,14,58,12.80
2014,01,24,14,59,12.80
2014,01,24,15,00,12.80
2014,01,24,15,01,12.80
2014,01,24,15,02,12.80
2014,01,24,15,03,12.80
2014,01,24,15,04,12.80
2014,01,24,15,05,12.80
2014,01,24,15,06,12.80
2014,01,24,15,07,12.80
2014,01,24,15,08,12.80
2014,01,24,15,09,12.80
2014,01,24,15,10,12.80
2014,01,24,15,11,12.80
2014,01,24,15,12,12.80
2014,01,24,15,13,12.80
2014,01,24,15,14,12.80
2014,01,24,15,15,12.70
2014,01,24,15,16,12.70
2014,01,24,15,17,12.60
2014,01,24,15,18,12.60
2014,01,24,15,19,12.60
2014,01,24,15,20,12.60
2014,01,24,15,21,12.60
2014,01,24,15,22,12.60
2014,01,24,15,23,12.60
2014,01,24,15,24,12.60
2014,01,24,15,25,12.60
2014,01,24,15,26,12.60
2014,01,24,15,27,12.60
2014,01,24,15,28,12.60
2014,01,24,15,29,12.60
2014,01,24,15,30,12.60
2014,01,24,15,31,12.60
2014,01,24,15,32,12.60
2014,01,24,15,33,12.60
2014,01,24,15,34,12.60
2014,01,24,15,35,12.60
2014,01,24,15,36,12.60
2014,01,24,15,37,12.60
2014,01,24,15,38,12.60
2014,01,24,15,39,12.60
2014,01,24,15,40,12.50
2014,01,24,15,41,12.50
2014,01,24,15,42,12.50
2014,01,24,15,43,12.50
2014,01,24,15,44,12.50
2014,01,24,15,45,12.40
2014,01,24,15,46,12.40
2014,01,24,15,47,12.40
2014,01,24,15,48,12.40
2014,01,24,15,49,12.30
2014,01,24,15,50,12.30
2014,01,24,15,51,12.30
2014,01,24,15,52,12.30
2014,01,24,15,53,12.20
2014,01,24,15,54,12.20
2014,01,24,15,55,12.10
2014,01,24,15,56,12.00
2014,01,24,15,57,11.90
2014,01,24,15,58,11.80
2014,01,24,15,59,11.80
2014,01,24,16,00,11.70
2014,01,24,16,01,11.60
2014,01,24,16,02,11.40
2014,01,24,16,03,11.30
2014,01,24,16,04,11.20
2014,01,24,16,05,11.10
2014,01,24,16,06,10.90
2014,01,24,16,07,10.90
2014,01,24,16,08,10.80
2014,01,24,16,09,10.70
2014,01,24,16,10,10.70
2014,01,24,16,11,10.60
2014,01,24,16,12,10.50
2014,01,24,16,13,10.40
2014,01,24,16,14,10.40
2014,01,24,16,15,10.30
2014,01,24,16,16,10.20
2014,01,24,16,17,10.10
2014,01,24,16,18,10.10
2014,01,24,16,19,10.00
2014,01,24,16,20,9.90
2014,01,24,16,21,9.90
2014,01,24,16,22,9.90
2014,01,24,16,23,9.80
2014,01,24,16,24,9.70
2014,01,24,16,25,9.70
2014,01,24,16,26,9.60
2014,01,24,16,27,9.50
2014,01,24,16,28,9.40
2014,01,24,16,29,9.40
2014,01,24,16,30,9.30
2014,01,24,16,31,9.20
2014,01,24,16,32,9.20
2014,01,24,16,33,9.20
2014,01,24,16,34,9.10
2014,01,24,16,35,9.00
2014,01,24,16,36,8.90
2014,01,24,16,37,8.90
2014,01,24,16,38,8.80
2014,01,24,16,39,8.70
2014,01,24,16,40,8.70
2014,01,24,16,41,8.70
2014,01,24,16,42,8.60
2014,01,24,16,43,8.50
2014,01,24,16,44,8.50
2014,01,24,16,45,8.40
2014,01,24,16,46,8.40
2014,01,24,16,47,8.30
2014,01,24,16,48,8.20
2014,01,24,16,49,8.20
2014,01,24,16,50,8.10
2014,01,24,16,51,8.00
2014,01,24,16,52,8.00
2014,01,24,16,53,7.90
2014,01,24,16,54,7.80
2014,01,24,16,55,7.80
2014,01,24,16,56,7.80
2014,01,24,16,57,7.80
2014,01,24,16,58,7.70
2014,01,24,16,59,7.70
2014,01,24,17,00,7.60
2014,01,24,17,01,7.60
2014,01,24,17,02,7.50
2014,01,24,17,03,7.40
2014,01,24,17,04,7.30
2014,01,24,17,05,7.30
2014,01,24,17,06,7.20
2014,01,24,17,07,7.10
2014,01,24,17,08,7.10
2014,01,24,17,09,7.00
2014,01,24,17,10,7.00
2014,01,24,17,11,6.90
2014,01,24,17,12,6.80
2014,01,24,17,13,6.80
2014,01,24,17,14,6.80
2014,01,24,17,15,6.80
2014,01,24,17,16,6.70
2014,01,24,17,17,6.60
2014,01,24,17,18,6.60
2014,01,24,17,19,6.60
2014,01,24,17,20,6.50
2014,01,24,17,21,6.40
2014,01,24,17,22,6.40
2014,01,24,17,23,6.40
2014,01,24,17,24,6.30
2014,01,24,17,25,6.30
2014,01,24,17,26,6.20
2014,01,24,17,27,6.20
2014,01,24,17,28,6.20
2014,01,24,17,29,6.20
2014,01,24,17,30,6.10
2014,01,24,17,31,6.10
2014,01,24,17,32,6.10
2014,01,24,17,33,6.00
2014,01,24,17,34,6.00
2014,01,24,17,35,6.00
2014,01,24,17,36,6.00
2014,01,24,17,37,5.90
2014,01,24,17,38,5.90
2014,01,24,17,39,5.80
2014,01,24,17,40,5.80
2014,01,24,17,41,5.80
2014,01,24,17,42,5.70
2014,01,24,17,43,5.70
2014,01,24,17,44,5.70
2014,01,24,17,45,5.70
2014,01,24,17,46,5.70
2014,01,24,17,47,5.70
2014,01,24,17,48,5.70
2014,01,24,17,49,5.70
2014,01,24,17,50,5.70
2014,01,24,17,51,5.60
2014,01,24,17,52,5.60
2014,01,24,17,53,5.60
2014,01,24,17,54,5.50
2014,01,24,17,55,5.50
2014,01,24,17,56,5.50
2014,01,24,17,57,5.40
2014,01,24,17,58,5.40
2014,01,24,17,59,5.40
2014,01,24,18,00,5.30
2014,01,24,18,01,5.30
2014,01,24,18,02,5.30
2014,01,24,18,03,5.30
2014,01,24,18,04,5.20
2014,01,24,18,05,5.20
2014,01,24,18,06,5.20
2014,01,24,18,07,5.10
2014,01,24,18,08,5.10
2014,01,24,18,09,5.10
2014,01,24,18,10,5.10
2014,01,24,18,11,5.10
2014,01,24,18,12,5.10
2014,01,24,18,13,5.00
2014,01,24,18,14,4.90
2014,01,24,18,15,4.90
2014,01,24,18,16,4.90
2014,01,24,18,17,4.90
2014,01,24,18,18,4.80
2014,01,24,18,19,4.80
2014,01,24,18,20,4.80
2014,01,24,18,21,4.80
2014,01,24,18,22,4.70
2014,01,24,18,23,4.70
2014,01,24,18,24,4.70
2014,01,24,18,25,4.70
2014,01,24,18,26,4.60
2014,01,24,18,27,4.60
2014,01,24,18,28,4.60
2014,01,24,18,29,4.60
2014,01,24,18,30,4.60
2014,01,24,18,31,4.60
2014,01,24,18,32,4.60
2014,01,24,18,33,4.60
2014,01,24,18,34,4.50
2014,01,24,18,35,4.50
2014,01,24,18,36,4.50
2014,01,24,18,37,4.50
2014,01,24,18,38,4.40
2014,01,24,18,39,4.40
2014,01,24,18,40,4.40
2014,01,24,18,41,4.40
2014,01,24,18,42,4.40
2014,01,24,18,43,4.40
2014,01,24,18,44,4.30
2014,01,24,18,45,4.30
2014,01,24,18,46,4.30
2014,01,24,18,47,4.30
2014,01,24,18,48,4.30
2014,01,24,18,49,4.30
2014,01,24,18,50,4.30
2014,01,24,18,51,4.20
2014,01,24,18,52,4.20
2014,01,24,18,53,4.20
2014,01,24,18,54,4.20
2014,01,24,18,55,4.20
2014,01,24,18,56,4.20
2014,01,24,18,57,4.20
2014,01,24,18,58,4.20
2014,01,24,18,59,4.20
2014,01,24,19,00,4.20
2014,01,24,19,01,4.20
2014,01,24,19,02,4.20
2014,01,24,19,03,4.20
2014,01,24,19,04,4.20
2014,01,24,19,05,4.20
2014,01,24,19,06,4.20
2014,01,24,19,07,4.20
2014,01,24,19,08,4.10
2014,01,24,19,09,4.10
2014,01,24,19,10,4.10
2014,01,24,19,11,4.10
2014,01,24,19,12,4.10
2014,01,24,19,13,4.10
2014,01,24,19,14,4.00
2014,01,24,19,15,4.00
2014,01,24,19,16,4.00
2014,01,24,19,17,4.00
2014,01,24,19,18,4.00
2014,01,24,19,19,3.90
2014,01,24,19,20,3.90
2014,01,24,19,21,3.90
2014,01,24,19,22,3.90
2014,01,24,19,23,3.90
2014,01,24,19,24,3.80
2014,01,24,19,25,3.80
2014,01,24,19,26,3.80
2014,01,24,19,27,3.80
2014,01,24,19,28,3.80
2014,01,24,19,29,3.80
2014,01,24,19,30,3.80
2014,01,24,19,31,3.80
2014,01,24,19,32,3.80
2014,01,24,19,33,3.80
2014,01,24,19,34,3.80
2014,01,24,19,35,3.80
2014,01,24,19,36,3.70
2014,01,24,19,37,3.70
2014,01,24,19,38,3.70
2014,01,24,19,39,3.70
2014,01,24,19,40,3.70
2014,01,24,19,41,3.70
2014,01,24,19,42,3.70
2014,01,24,19,43,3.70
2014,01,24,19,44,3.60
2014,01,24,19,45,3.60
2014,01,24,19,46,3.60
2014,01,24,19,47,3.60
2014,01,24,19,48,3.60
2014,01,24,19,49,3.60
2014,01,24,19,50,3.60
2014,01,24,19,51,3.60
2014,01,24,19,52,3.60
2014,01,24,19,53,3.50
2014,01,24,19,54,3.50
2014,01,24,19,55,3.50
2014,01,24,19,56,3.50
2014,01,24,19,57,3.50
2014,01,24,19,58,3.50
2014,01,24,19,59,3.50
2014,01,24,20,00,3.50
2014,01,24,20,01,3.50
2014,01,24,20,02,3.50
2014,01,24,20,03,3.50
2014,01,24,20,04,3.50
2014,01,24,20,05,3.60
2014,01,24,20,06,3.60
2014,01,24,20,07,3.60